Other Surface Observations
Issued by NWS Upton, NY

Home | Current Version | Previous Version | Text Only | Print | Product List | Glossary On
Versions: 1 2 3 4 5 6 7 8 9 10 11 12 13 14 15 16 17 18 19 20 21 22 23 24 25 26 27 28 29 30 31 32 33 34 35 36 37 38 39 40 41 42 43 44 45 46 47 48 49 50
000
SXUS51 KOKX 211657
OSOOKX
New York City Metropolitan Area Weather Roundup
National Weather Service New York NY
100 PM EDT SAT APR 21 2018

CITY           SKY/WX    TMP DP  RH WIND       PRES   REMARKS
Central Park   FAIR      56  21  25 NW7G16    30.37F
LaGuardia Arpt FAIR      55  25  31 NW14      30.35F
Kennedy Intl   FAIR      56  22  26 NW14G26   30.36F
Newark Liberty PTSUNNY   58  29  33 NW10G24   30.36F
Teterboro Arpt FAIR      56  27  32 NW18G24   30.34F
Bronx Bot Gard   N/A     55  23  28 W3        30.37S
Bronx Lehman C   N/A     54  23  30 NW10        N/A
Queens College   N/A     54  23  30 W13         N/A
Breezy Point     N/A     52 N/A N/A W6G12       N/A
Brooklyn Coll    N/A     54  23  30 W13         N/A
Staten Island    N/A     54  23  30 W13         N/A

>>>>>>>>>>>>>>>>>>>>>>>>>>>>>>>>> KEY <<<<<<<<<<<<<<<<<<<<<<<<<<<<<<<
> SKY/WX - Sky Condition/Present    : R : WCI - Wind Chill Index    <
>          Weather                  : E : VSB - Visibility in Miles <
> TMP    - Temperature in Deg F     : M : HX  - Heat Index          <
> DP     - Dew Point Temperature    : A : TC  - Temperature in      <
> RH     - Relative Humidity        : R :       Celsius             <
> WIND   - Direction/Speed (mph)    : K : VRB - Variable Wind Dir   <
> PRES   - Pressure (in Hg)         : S :                           <
>>>>>>>>>>>>>>>>>>>>>>>>>>>>>>>>> KEY <<<<<<<<<<<<<<<<<<<<<<<<<<<<<<<




USA.gov is the U.S. government's official web portal to all federal, state and local government web resources and services.